Welcome to the New NWS' Forecast!
Most changes are behind the scenes, but click here for differences you might notice.

Regional Weather Roundup (RWR)

Issued by National Weather Service (NWS)

                            
000
ASUS44 KBMX 230710
RWRAL 
             
ALABAMA REGIONAL WEATHER ROUNDUP
NATIONAL WEATHER SERVICE BIRMINGHAM AL
200 AM CDT TUE OCT 23 2018

NOTE: "FAIR" INDICATES FEW OR NO CLOUDS BELOW 12,000 FEET
WITH NO SIGNIFICANT WEATHER AND/OR OBSTRUCTIONS TO VISIBILITY.

THE REMARK "TC" DENOTES TEMPERATURE IN DEGREES CELSIUS.

ALZ001>011-014-016>018-020-230800-
NORTH ALABAMA
  
CITY           SKY/WX    TMP DP  RH WIND       PRES   REMARKS
MUSCLE SHOALS  FAIR      45  43  93 CALM      30.23F                  
HUNTSVILLE     FAIR      46  44  93 CALM      30.23S                  
DECATUR        FAIR      42  41  96 CALM      30.24S                  
HALEYVILLE     FAIR      42  41  96 CALM      30.24F                  
GADSDEN        FAIR      43  43 100 CALM      30.24S                  
$$
 
ALZ012-013-022-023-030>036-040>044-230800-
WEST CENTRAL ALABAMA
  
CITY           SKY/WX    TMP DP  RH WIND       PRES   REMARKS
TUSCALOOSA     FAIR      53  48  83 N5        30.20S                  
DEMOPOLIS      NOT AVBL                                               
$$
 
ALZ015-024>026-033>036-041>044-230800-
CENTRAL ALABAMA
  
CITY           SKY/WX    TMP DP  RH WIND       PRES   REMARKS
BIRMINGHAM     MOCLDY    49  44  83 CALM      30.23S                  
MONTGOMERY     MOCLDY    59  54  83 NE3       30.18F                  
SHELBY CO ARPT FAIR      53  48  83 CALM      30.20F                  
MAXWELL AFB    FAIR      58  52  82 CALM        N/A                   
GREENVILLE     CLOUDY    62  54  74 N5        30.16S                  
SELMA          FAIR      59  54  82 CALM      30.17S                  
PRATTVILLE     FAIR      54  54  99 CALM      30.17F                  
BESSEMER       FAIR      53  45  74 N3        30.20F                  
TALLADEGA      FAIR      48  47  96 CALM      30.23S                  
PELL CITY      MOSUNNY   45  45 100 CALM      30.22F                  
MARION         FAIR      56  48  75 CALM      30.17S                  
SYLACAUGA      FAIR      51  51 100 CALM      30.20F                  
$$
 
ALZ019-021-028-029-037-038-045>048-230800-
EAST CENTRAL ALABAMA
  
CITY           SKY/WX    TMP DP  RH WIND       PRES   REMARKS
ANNISTON       CLOUDY    50  45  83 NE6       30.22F                  
ALEXANDER CITY FAIR      52  51  95 N3        30.19F                  
AUBURN         FAIR      56  52  86 NE5       30.20F                  
$$
 
ALZ051>064-230800-
SOUTHWEST ALABAMA
  
CITY           SKY/WX    TMP DP  RH WIND       PRES   REMARKS
MOBILE         FAIR      66  59  78 NE7       30.12F                  
BROOKLEY FIELD CLOUDY    70  60  70 NE7       30.12F                  
EVERGREEN      FAIR      62  58  86 CALM      30.15S                  
$$

ALZ049-050-065>069-230800-
SOUTHEAST ALABAMA
  
CITY           SKY/WX    TMP DP  RH WIND       PRES   REMARKS
DOTHAN         FAIR      62  54  74 E5        30.19F                  
OZARK          FAIR      60  55  84 NE6       30.14F                  
TROY           MOCLDY    59  55  87 NE5       30.17F                  
EUFAULA        FAIR      59  58  96 CALM      30.16F                  
$$